| time (UTC) | temp F | wind direction | speed MPH | gust MPH | rain 1hr in | rain 24hr in | rain mn in | humidity % | barometer mb |
| 20260903172021 | 74 | 279 | 3.0 | 8.0 | 0.00 | 0.00 | 0.00 | 75 | 1014.4 |
| 20260903171536 | 74 | 294 | 2.0 | 7.0 | 0.00 | 0.00 | 0.00 | 76 | 1014.5 |
| 20260903171016 | 74 | 202 | 2.0 | 7.0 | 0.00 | 0.00 | 0.00 | 75 | 1014.4 |
| 20260903170516 | 74 | 267 | 0.0 | 7.0 | 0.00 | 0.00 | 0.00 | 76 | 1014.4 |
| 20260903170034 | 74 | 221 | 3.0 | 8.0 | 0.00 | 0.00 | 0.00 | 75 | 1014.4 |
| 20260903165515 | 74 | 269 | 3.0 | 8.0 | 0.00 | 0.00 | 0.00 | 74 | 1014.4 |
| 20260903165018 | 75 | 244 | 3.0 | 7.0 | 0.00 | 0.00 | 0.00 | 73 | 1014.3 |
| 20260903164533 | 76 | 0 | 2.0 | 6.0 | 0.00 | 0.00 | 0.00 | 73 | 1014.3 |
| 20260903164020 | 75 | 23 | 1.0 | 4.0 | 0.00 | 0.00 | 0.00 | 74 | 1014.3 |
| 20260903163519 | 75 | 152 | 0.0 | 3.0 | 0.00 | 0.00 | 0.00 | 72 | 1014.3 |
| 20260903163042 | 75 | 101 | 1.0 | 4.0 | 0.00 | 0.00 | 0.00 | 73 | 1014.4 |
| 20260903162522 | 74 | 0 | 0.0 | 6.0 | 0.00 | 0.00 | 0.00 | 74 | 1014.4 |
| 20260903162020 | 74 | 71 | 2.0 | 7.0 | 0.00 | 0.00 | 0.00 | 75 | 1014.4 |
| 20260903161533 | 73 | 121 | 2.0 | 7.0 | 0.00 | 0.00 | 0.00 | 76 | 1014.4 |
| 20260903161016 | 72 | 83 | 3.0 | 6.0 | 0.00 | 0.00 | 0.00 | 77 | 1014.3 |
| 20260903160516 | 72 | 20 | 1.0 | 7.0 | 0.00 | 0.00 | 0.00 | 78 | 1014.3 |
| 20260903160042 | 71 | 53 | 3.0 | 7.0 | 0.00 | 0.00 | 0.00 | 78 | 1014.4 |
| 20260903155519 | 71 | 182 | 1.0 | 7.0 | 0.00 | 0.00 | 0.00 | 81 | 1014.4 |
| 20260903155020 | 70 | 146 | 2.0 | 7.0 | 0.00 | 0.00 | 0.00 | 81 | 1014.4 |
| 20260903154534 | 70 | 0 | 1.0 | 4.0 | 0.00 | 0.00 | 0.00 | 84 | 1014.4 |
| 20260903154020 | 69 | 165 | 1.0 | 5.0 | 0.00 | 0.00 | 0.00 | 85 | 1014.4 |
| 20260903153519 | 68 | 0 | 0.0 | 5.0 | 0.00 | 0.00 | 0.00 | 84 | 1014.4 |
| 20260903153037 | 68 | 190 | 0.0 | 3.0 | 0.00 | 0.00 | 0.00 | 85 | 1014.4 |
| 20260903152521 | 68 | 106 | 0.0 | 3.0 | 0.00 | 0.00 | 0.00 | 86 | 1014.3 |
| 20260903152022 | 68 | 150 | 1.0 | 2.0 | 0.00 | 0.00 | 0.00 | 87 | 1014.3 |
| 20260903151535 | 67 | 107 | 0.0 | 2.0 | 0.00 | 0.00 | 0.00 | 88 | 1014.4 |
| 20260903151018 | 67 | 0 | 0.0 | 3.0 | 0.00 | 0.00 | 0.00 | 89 | 1014.3 |
| 20260903150521 | 67 | 0 | 0.0 | 3.0 | 0.00 | 0.00 | 0.00 | 89 | 1014.3 |
| 20260903150049 | 66 | 0 | 1.0 | 3.0 | 0.00 | 0.00 | 0.00 | 90 | 1014.4 |
| 20260903145515 | 66 | 143 | 0.0 | 3.0 | 0.00 | 0.00 | 0.00 | 91 | 1014.4 |
| 20260903145015 | 66 | 191 | 1.0 | 3.0 | 0.00 | 0.00 | 0.00 | 92 | 1014.3 |
| 20260903144539 | 66 | 0 | 0.0 | 2.0 | 0.00 | 0.00 | 0.00 | 92 | 1014.3 |
| 20260903144019 | 65 | 191 | 0.0 | 2.0 | 0.00 | 0.00 | 0.00 | 92 | 1014.2 |
| 20260903143521 | 65 | 0 | 0.0 | 2.0 | 0.00 | 0.00 | 0.00 | 92 | 1014.1 |
| 20260903143034 | 65 | 0 | 0.0 | 2.0 | 0.00 | 0.00 | 0.00 | 93 | 1014.1 |
| 20260903142519 | 65 | 0 | 0.0 | 2.0 | 0.00 | 0.00 | 0.00 | 93 | 1014.0 |
| 20260903142019 | 65 | 0 | 0.0 | 2.0 | 0.00 | 0.00 | 0.00 | 93 | 1013.9 |
| 20260903141535 | 64 | 0 | 0.0 | 0.0 | 0.00 | 0.00 | 0.00 | 93 | 1013.9 |
| 20260903141018 | 64 | 0 | 0.0 | 1.0 | 0.00 | 0.00 | 0.00 | 93 | 1013.8 |
| 20260903140516 | 64 | 0 | 0.0 | 1.0 | 0.00 | 0.00 | 0.00 | 93 | 1013.8 |
| 20260903140041 | 64 | 0 | 0.0 | 0.0 | 0.00 | 0.00 | 0.00 | 93 | 1013.7 |
| 20260903135518 | 64 | 0 | 0.0 | 0.0 | 0.00 | 0.00 | 0.00 | 93 | 1013.7 |
| 20260903135018 | 64 | 0 | 0.0 | 0.0 | 0.00 | 0.00 | 0.00 | 93 | 1013.7 |
| 20260903134543 | 64 | 0 | 0.0 | 0.0 | 0.00 | 0.00 | 0.00 | 93 | 1013.7 |
| 20260903134015 | 64 | 0 | 0.0 | 0.0 | 0.00 | 0.00 | 0.00 | 93 | 1013.7 |
| 20260903133520 | 64 | 0 | 0.0 | 0.0 | 0.00 | 0.00 | 0.00 | 93 | 1013.7 |
| 20260903133034 | 64 | 0 | 0.0 | 0.0 | 0.00 | 0.00 | 0.00 | 93 | 1013.7 |
| 20260903132519 | 64 | 0 | 0.0 | 0.0 | 0.00 | 0.00 | 0.00 | 93 | 1013.7 |
| 20260903132019 | 64 | 0 | 0.0 | 0.0 | 0.00 | 0.00 | 0.00 | 93 | 1013.7 |
| 20260903131536 | 63 | 0 | 0.0 | 0.0 | 0.00 | 0.00 | 0.00 | 93 | 1013.7 |
| 20260903131019 | 63 | 0 | 0.0 | 0.0 | 0.00 | 0.00 | 0.00 | 93 | 1013.7 |
| 20260903130520 | 63 | 0 | 0.0 | 0.0 | 0.00 | 0.00 | 0.00 | 92 | 1013.7 |
| 20260903130043 | 63 | 0 | 0.0 | 0.0 | 0.00 | 0.00 | 0.00 | 92 | 1013.7 |
| 20260903125517 | 63 | 0 | 0.0 | 0.0 | 0.00 | 0.00 | 0.00 | 92 | 1013.6 |
| 20260903125018 | 63 | 0 | 0.0 | 0.0 | 0.00 | 0.00 | 0.00 | 92 | 1013.7 |
| 20260903124533 | 64 | 0 | 0.0 | 0.0 | 0.00 | 0.00 | 0.00 | 92 | 1013.7 |
| 20260903124017 | 64 | 0 | 0.0 | 0.0 | 0.00 | 0.00 | 0.00 | 91 | 1013.6 |
| 20260903123519 | 64 | 0 | 0.0 | 0.0 | 0.00 | 0.00 | 0.00 | 91 | 1013.7 |
| 20260903123042 | 64 | 0 | 0.0 | 0.0 | 0.00 | 0.00 | 0.00 | 91 | 1013.7 |
| 20260903122520 | 64 | 0 | 0.0 | 0.0 | 0.00 | 0.00 | 0.00 | 91 | 1013.7 |
| 20260903122020 | 64 | 0 | 0.0 | 0.0 | 0.00 | 0.00 | 0.00 | 92 | 1013.6 |
| 20260903121552 | 64 | 0 | 0.0 | 0.0 | 0.00 | 0.00 | 0.00 | 92 | 1013.6 |
| 20260903121016 | 64 | 0 | 0.0 | 0.0 | 0.00 | 0.00 | 0.00 | 91 | 1013.6 |
| 20260903120518 | 64 | 0 | 0.0 | 0.0 | 0.00 | 0.00 | 0.00 | 91 | 1013.6 |
| 20260903120037 | 65 | 0 | 0.0 | 0.0 | 0.00 | 0.00 | 0.00 | 91 | 1013.7 |
| 20260903115519 | 65 | 0 | 0.0 | 0.0 | 0.00 | 0.00 | 0.00 | 91 | 1013.7 |
| 20260903115021 | 65 | 0 | 0.0 | 0.0 | 0.00 | 0.00 | 0.00 | 91 | 1013.7 |
| 20260903114539 | 65 | 0 | 0.0 | 4.0 | 0.00 | 0.00 | 0.00 | 91 | 1013.8 |
| 20260903114019 | 65 | 0 | 0.0 | 4.0 | 0.00 | 0.00 | 0.00 | 92 | 1013.8 |
| 20260903113519 | 65 | 0 | 0.0 | 4.0 | 0.00 | 0.00 | 0.00 | 92 | 1013.8 |
| 20260903113035 | 65 | 0 | 0.0 | 4.0 | 0.00 | 0.00 | 0.00 | 91 | 1013.9 |
| 20260903112525 | 65 | 0 | 0.0 | 4.0 | 0.00 | 0.00 | 0.00 | 91 | 1013.9 |
| 20260903112018 | 65 | 0 | 0.0 | 1.0 | 0.00 | 0.00 | 0.00 | 91 | 1013.9 |
| 20260903111533 | 65 | 0 | 0.0 | 0.0 | 0.00 | 0.00 | 0.00 | 91 | 1013.9 |
| 20260903111017 | 65 | 0 | 0.0 | 0.0 | 0.00 | 0.00 | 0.00 | 91 | 1013.9 |
| 20260903110516 | 65 | 0 | 0.0 | 0.0 | 0.00 | 0.00 | 0.00 | 91 | 1014.0 |
| 20260903110035 | 66 | 0 | 0.0 | 0.0 | 0.00 | 0.00 | 0.00 | 91 | 1013.9 |
| 20260903105523 | 66 | 0 | 0.0 | 0.0 | 0.00 | 0.00 | 0.00 | 91 | 1014.0 |
| 20260903105020 | 66 | 0 | 0.0 | 2.0 | 0.00 | 0.00 | 0.00 | 91 | 1013.9 |
| 20260903104548 | 66 | 0 | 0.0 | 2.0 | 0.00 | 0.00 | 0.00 | 91 | 1013.9 |
| 20260903104019 | 66 | 0 | 0.0 | 2.0 | 0.00 | 0.00 | 0.00 | 91 | 1013.9 |
| 20260903103518 | 66 | 0 | 0.0 | 4.0 | 0.00 | 0.00 | 0.00 | 91 | 1013.9 |
| 20260903103038 | 66 | 0 | 0.0 | 4.0 | 0.00 | 0.00 | 0.00 | 91 | 1013.9 |
| 20260903102517 | 66 | 0 | 0.0 | 2.0 | 0.00 | 0.00 | 0.00 | 91 | 1014.0 |
| 20260903102020 | 66 | 0 | 0.0 | 2.0 | 0.00 | 0.00 | 0.00 | 91 | 1014.0 |
| 20260903101544 | 66 | 0 | 0.0 | 2.0 | 0.00 | 0.00 | 0.00 | 91 | 1014.1 |
| 20260903101016 | 66 | 215 | 1.0 | 2.0 | 0.00 | 0.00 | 0.00 | 90 | 1014.1 |
| 20260903100517 | 66 | 215 | 0.0 | 2.0 | 0.00 | 0.00 | 0.00 | 90 | 1014.0 |
| 20260903100041 | 66 | 0 | 0.0 | 2.0 | 0.00 | 0.00 | 0.00 | 90 | 1014.1 |
| 20260903095516 | 67 | 215 | 0.0 | 2.0 | 0.00 | 0.00 | 0.00 | 90 | 1014.0 |
| 20260903095017 | 67 | 215 | 0.0 | 2.0 | 0.00 | 0.00 | 0.00 | 90 | 1014.1 |
| 20260903094534 | 67 | 0 | 0.0 | 1.0 | 0.00 | 0.00 | 0.00 | 89 | 1014.2 |
| 20260903094021 | 67 | 0 | 0.0 | 2.0 | 0.00 | 0.00 | 0.00 | 90 | 1014.1 |
| 20260903093525 | 67 | 0 | 0.0 | 2.0 | 0.00 | 0.00 | 0.00 | 90 | 1014.1 |
| 20260903093036 | 67 | 0 | 0.0 | 3.0 | 0.00 | 0.00 | 0.00 | 90 | 1014.1 |
| 20260903092519 | 68 | 0 | 0.0 | 3.0 | 0.00 | 0.00 | 0.00 | 90 | 1014.1 |
| 20260903092018 | 68 | 254 | 0.0 | 2.0 | 0.00 | 0.00 | 0.00 | 89 | 1014.2 |
| 20260903091550 | 68 | 0 | 0.0 | 3.0 | 0.00 | 0.00 | 0.00 | 89 | 1014.3 |
| 20260903091019 | 68 | 0 | 0.0 | 4.0 | 0.00 | 0.00 | 0.00 | 89 | 1014.2 |
| 20260903090516 | 68 | 205 | 0.0 | 4.0 | 0.00 | 0.00 | 0.00 | 89 | 1014.3 |
| 20260903090035 | 68 | 249 | 1.0 | 6.0 | 0.00 | 0.00 | 0.00 | 89 | 1014.3 |
| 20260903085517 | 68 | 247 | 2.0 | 6.0 | 0.00 | 0.00 | 0.00 | 89 | 1014.3 |
| 20260903085018 | 68 | 0 | 1.0 | 4.0 | 0.00 | 0.00 | 0.00 | 89 | 1014.2 |
| 20260903084535 | 68 | 246 | 1.0 | 9.0 | 0.00 | 0.00 | 0.00 | 89 | 1014.3 |
| 20260903084021 | 68 | 215 | 1.0 | 9.0 | 0.00 | 0.00 | 0.00 | 89 | 1014.4 |
| 20260903083518 | 68 | 267 | 2.0 | 9.0 | 0.00 | 0.00 | 0.00 | 88 | 1014.5 |
| 20260903083037 | 68 | 248 | 3.0 | 9.0 | 0.00 | 0.00 | 0.00 | 88 | 1014.4 |
| 20260903082518 | 68 | 265 | 3.0 | 8.0 | 0.00 | 0.00 | 0.00 | 88 | 1014.4 |
| 20260903082016 | 68 | 265 | 3.0 | 8.0 | 0.00 | 0.00 | 0.00 | 88 | 1014.5 |
| 20260903081537 | 68 | 265 | 3.0 | 8.0 | 0.00 | 0.00 | 0.00 | 88 | 1014.6 |
| 20260903081019 | 68 | 280 | 2.0 | 8.0 | 0.00 | 0.00 | 0.00 | 88 | 1014.7 |
| 20260903080518 | 68 | 265 | 2.0 | 8.0 | 0.00 | 0.00 | 0.00 | 88 | 1014.7 |
| 20260903080041 | 68 | 265 | 3.0 | 7.0 | 0.00 | 0.00 | 0.00 | 88 | 1014.8 |
| 20260903075521 | 68 | 268 | 2.0 | 10.0 | 0.00 | 0.00 | 0.00 | 88 | 1014.9 |
| 20260903075017 | 68 | 264 | 2.0 | 10.0 | 0.00 | 0.00 | 0.00 | 87 | 1014.8 |
| 20260903074540 | 68 | 264 | 2.0 | 8.0 | 0.00 | 0.00 | 0.00 | 87 | 1014.8 |
| 20260903074018 | 68 | 252 | 3.0 | 8.0 | 0.00 | 0.00 | 0.00 | 88 | 1014.9 |
| 20260903073519 | 68 | 242 | 3.0 | 8.0 | 0.00 | 0.00 | 0.00 | 87 | 1014.8 |
| 20260903073039 | 68 | 0 | 2.0 | 8.0 | 0.00 | 0.00 | 0.00 | 87 | 1014.7 |
| 20260903072519 | 68 | 246 | 1.0 | 9.0 | 0.00 | 0.00 | 0.00 | 87 | 1014.6 |
| 20260903072019 | 68 | 258 | 3.0 | 9.0 | 0.00 | 0.00 | 0.00 | 87 | 1014.6 |
| 20260903071537 | 68 | 254 | 2.0 | 7.0 | 0.00 | 0.00 | 0.00 | 88 | 1014.7 |
| 20260903071018 | 68 | 264 | 2.0 | 7.0 | 0.00 | 0.00 | 0.00 | 88 | 1014.6 |
| 20260903070518 | 68 | 266 | 3.0 | 8.0 | 0.00 | 0.00 | 0.00 | 88 | 1014.5 |
| 20260903070034 | 68 | 249 | 2.0 | 8.0 | 0.00 | 0.00 | 0.00 | 88 | 1014.5 |
| 20260903065518 | 68 | 229 | 3.0 | 8.0 | 0.00 | 0.00 | 0.00 | 87 | 1014.6 |
| 20260903065018 | 69 | 240 | 3.0 | 10.0 | 0.00 | 0.00 | 0.00 | 87 | 1014.6 |
| 20260903064537 | 69 | 272 | 3.0 | 10.0 | 0.00 | 0.00 | 0.00 | 87 | 1014.7 |
| 20260903064018 | 69 | 259 | 3.0 | 8.0 | 0.00 | 0.00 | 0.00 | 86 | 1014.7 |
| 20260903063518 | 69 | 261 | 3.0 | 7.0 | 0.00 | 0.00 | 0.00 | 86 | 1014.7 |
| 20260903063036 | 69 | 287 | 3.0 | 7.0 | 0.00 | 0.00 | 0.00 | 85 | 1014.7 |
| 20260903062518 | 69 | 240 | 3.0 | 7.0 | 0.00 | 0.00 | 0.00 | 85 | 1014.7 |
| 20260903062016 | 69 | 267 | 2.0 | 8.0 | 0.00 | 0.00 | 0.00 | 84 | 1014.7 |
| 20260903061535 | 69 | 250 | 2.0 | 8.0 | 0.00 | 0.00 | 0.00 | 84 | 1014.7 |
| 20260903061021 | 69 | 261 | 4.0 | 11.0 | 0.00 | 0.00 | 0.00 | 83 | 1014.6 |
| 20260903060516 | 69 | 209 | 4.0 | 11.0 | 0.00 | 0.00 | 0.00 | 83 | 1014.6 |
| 20260903060053 | 69 | 267 | 4.0 | 12.0 | 0.00 | 0.00 | 0.00 | 82 | 1014.5 |
| 20260903055519 | 69 | 231 | 4.0 | 13.0 | 0.00 | 0.00 | 0.00 | 82 | 1014.5 |
| 20260903055018 | 70 | 259 | 3.0 | 13.0 | 0.00 | 0.00 | 0.00 | 81 | 1014.5 |
| 20260903054535 | 70 | 274 | 6.0 | 13.0 | 0.00 | 0.00 | 0.00 | 80 | 1014.6 |
| 20260903054018 | 70 | 217 | 4.0 | 10.0 | 0.00 | 0.00 | 0.00 | 81 | 1014.5 |
| 20260903053520 | 70 | 229 | 5.0 | 12.0 | 0.00 | 0.00 | 0.00 | 80 | 1014.5 |
| 20260903053038 | 70 | 209 | 4.0 | 13.0 | 0.00 | 0.00 | 0.00 | 80 | 1014.5 |
| 20260903052524 | 70 | 278 | 4.0 | 13.0 | 0.00 | 0.00 | 0.00 | 81 | 1014.5 |
| 20260903052016 | 70 | 278 | 5.0 | 13.0 | 0.00 | 0.00 | 0.00 | 80 | 1014.5 |
| 20260903051538 | 70 | 250 | 5.0 | 14.0 | 0.00 | 0.00 | 0.00 | 80 | 1014.4 |
| 20260903051017 | 70 | 250 | 5.0 | 14.0 | 0.00 | 0.00 | 0.00 | 81 | 1014.4 |
| 20260903050519 | 70 | 227 | 3.0 | 11.0 | 0.00 | 0.00 | 0.00 | 81 | 1014.4 |
| 20260903050043 | 70 | 250 | 4.0 | 12.0 | 0.00 | 0.00 | 0.00 | 82 | 1014.5 |
| 20260903045520 | 70 | 264 | 5.0 | 15.0 | 0.00 | 0.00 | 0.00 | 81 | 1014.5 |
| 20260903045023 | 70 | 228 | 5.0 | 15.0 | 0.00 | 0.00 | 0.00 | 82 | 1014.5 |
| 20260903044539 | 70 | 227 | 5.0 | 13.0 | 0.00 | 0.00 | 0.00 | 82 | 1014.5 |
| 20260903044022 | 70 | 226 | 7.0 | 13.0 | 0.00 | 0.00 | 0.00 | 82 | 1014.5 |
| 20260903043519 | 70 | 232 | 4.0 | 11.0 | 0.00 | 0.00 | 0.00 | 82 | 1014.5 |
| 20260903043033 | 70 | 275 | 5.0 | 11.0 | 0.00 | 0.00 | 0.00 | 82 | 1014.4 |
| 20260903042518 | 70 | 229 | 5.0 | 12.0 | 0.00 | 0.00 | 0.00 | 82 | 1014.5 |
| 20260903042018 | 70 | 246 | 7.0 | 14.0 | 0.00 | 0.00 | 0.00 | 82 | 1014.4 |
| 20260903041537 | 70 | 261 | 6.0 | 14.0 | 0.00 | 0.00 | 0.00 | 83 | 1014.3 |
| 20260903041021 | 70 | 257 | 5.0 | 12.0 | 0.00 | 0.00 | 0.00 | 83 | 1014.3 |
| 20260903040520 | 70 | 244 | 5.0 | 12.0 | 0.00 | 0.00 | 0.00 | 83 | 1014.3 |
| 20260903040038 | 70 | 279 | 5.0 | 12.0 | 0.00 | 0.00 | 0.00 | 84 | 1014.2 |
| 20260903035523 | 70 | 236 | 5.0 | 12.0 | 0.00 | 0.00 | 0.00 | 84 | 1014.2 |
| 20260903035019 | 70 | 221 | 5.0 | 12.0 | 0.00 | 0.00 | 0.00 | 84 | 1014.1 |
| 20260903034536 | 70 | 223 | 6.0 | 12.0 | 0.00 | 0.00 | 0.00 | 83 | 1014.2 |
| 20260903034022 | 70 | 224 | 5.0 | 12.0 | 0.00 | 0.00 | 0.00 | 82 | 1014.1 |
| 20260903033517 | 70 | 239 | 4.0 | 10.0 | 0.00 | 0.00 | 0.00 | 82 | 1014.1 |
| 20260903033035 | 70 | 234 | 5.0 | 9.0 | 0.00 | 0.00 | 0.00 | 81 | 1014.1 |
| 20260903032520 | 70 | 236 | 3.0 | 8.0 | 0.00 | 0.00 | 0.00 | 81 | 1014.1 |
| 20260903032019 | 70 | 267 | 4.0 | 9.0 | 0.00 | 0.00 | 0.00 | 80 | 1014.1 |
| 20260903031542 | 70 | 225 | 2.0 | 9.0 | 0.00 | 0.00 | 0.00 | 80 | 1014.1 |
| 20260903031026 | 70 | 272 | 3.0 | 12.0 | 0.00 | 0.00 | 0.00 | 80 | 1014.2 |
| 20260903030521 | 70 | 216 | 2.0 | 12.0 | 0.00 | 0.00 | 0.00 | 79 | 1014.1 |
| 20260903030048 | 70 | 242 | 4.0 | 10.0 | 0.00 | 0.00 | 0.00 | 79 | 1014.1 |
| 20260903025520 | 70 | 225 | 1.0 | 9.0 | 0.00 | 0.00 | 0.00 | 78 | 1014.1 |
| 20260903025019 | 70 | 224 | 3.0 | 9.0 | 0.00 | 0.00 | 0.00 | 78 | 1014.1 |
| 20260903024536 | 70 | 248 | 4.0 | 9.0 | 0.00 | 0.00 | 0.00 | 78 | 1014.1 |
| 20260903024020 | 70 | 264 | 2.0 | 10.0 | 0.00 | 0.00 | 0.00 | 77 | 1014.0 |
| 20260903023525 | 70 | 0 | 2.0 | 10.0 | 0.00 | 0.00 | 0.00 | 76 | 1013.9 |
| 20260903023034 | 70 | 254 | 2.0 | 10.0 | 0.00 | 0.00 | 0.00 | 77 | 1013.8 |
| 20260903022517 | 71 | 266 | 4.0 | 10.0 | 0.00 | 0.00 | 0.00 | 77 | 1013.9 |
| 20260903022022 | 71 | 269 | 3.0 | 10.0 | 0.00 | 0.00 | 0.00 | 76 | 1013.9 |
| 20260903021546 | 71 | 257 | 2.0 | 10.0 | 0.00 | 0.00 | 0.00 | 76 | 1014.0 |
| 20260903021021 | 71 | 266 | 3.0 | 10.0 | 0.00 | 0.00 | 0.00 | 77 | 1014.0 |
| 20260903020521 | 71 | 244 | 2.0 | 10.0 | 0.00 | 0.00 | 0.00 | 77 | 1014.0 |
| 20260903020039 | 71 | 234 | 4.0 | 10.0 | 0.00 | 0.00 | 0.00 | 77 | 1014.0 |
| 20260903015518 | 71 | 252 | 4.0 | 11.0 | 0.00 | 0.00 | 0.00 | 77 | 1014.0 |
| 20260903015018 | 71 | 223 | 4.0 | 11.0 | 0.00 | 0.00 | 0.00 | 76 | 1014.0 |
| 20260903014542 | 71 | 245 | 4.0 | 13.0 | 0.00 | 0.00 | 0.00 | 76 | 1014.0 |
| 20260903014025 | 71 | 236 | 4.0 | 13.0 | 0.00 | 0.00 | 0.00 | 76 | 1014.0 |
| 20260903013522 | 71 | 265 | 5.0 | 10.0 | 0.00 | 0.00 | 0.00 | 75 | 1014.0 |
| 20260903013037 | 72 | 224 | 2.0 | 11.0 | 0.00 | 0.00 | 0.00 | 75 | 1014.1 |
| 20260903012522 | 72 | 273 | 5.0 | 11.0 | 0.00 | 0.00 | 0.00 | 75 | 1014.1 |
| 20260903012020 | 72 | 277 | 4.0 | 10.0 | 0.00 | 0.00 | 0.00 | 75 | 1014.1 |
| 20260903011546 | 72 | 238 | 4.0 | 12.0 | 0.00 | 0.00 | 0.00 | 75 | 1014.1 |
| 20260903011021 | 72 | 282 | 5.0 | 12.0 | 0.00 | 0.00 | 0.00 | 74 | 1014.0 |
| 20260903010522 | 72 | 220 | 5.0 | 12.0 | 0.00 | 0.00 | 0.00 | 74 | 1014.0 |
| 20260903010038 | 73 | 237 | 5.0 | 15.0 | 0.00 | 0.00 | 0.00 | 74 | 1014.0 |
| 20260903005519 | 73 | 250 | 4.0 | 15.0 | 0.00 | 0.00 | 0.00 | 74 | 1014.1 |
| 20260903005019 | 73 | 223 | 6.0 | 11.0 | 0.00 | 0.00 | 0.00 | 74 | 1014.0 |
| 20260903004538 | 74 | 253 | 5.0 | 11.0 | 0.00 | 0.00 | 0.00 | 74 | 1014.0 |
| 20260903004018 | 73 | 269 | 5.0 | 12.0 | 0.00 | 0.00 | 0.00 | 74 | 1014.0 |
| 20260903003515 | 73 | 234 | 4.0 | 14.0 | 0.00 | 0.00 | 0.00 | 74 | 1014.0 |
| 20260903003036 | 73 | 222 | 6.0 | 14.0 | 0.00 | 0.00 | 0.00 | 74 | 1014.1 |
| 20260903002517 | 73 | 251 | 7.0 | 14.0 | 0.00 | 0.00 | 0.00 | 75 | 1014.1 |
| 20260903002020 | 74 | 222 | 6.0 | 13.0 | 0.00 | 0.00 | 0.00 | 75 | 1014.1 |
| 20260903001538 | 74 | 221 | 5.0 | 14.0 | 0.00 | 0.00 | 0.00 | 75 | 1014.1 |
| 20260903001019 | 74 | 252 | 6.0 | 15.0 | 0.00 | 0.00 | 0.00 | 76 | 1014.1 |
| 20260903000524 | 74 | 230 | 7.0 | 15.0 | 0.00 | 0.00 | 0.00 | 75 | 1014.1 |
| 20260903000049 | 75 | 205 | 5.0 | 13.0 | 0.00 | 0.00 | 0.00 | 75 | 1014.1 |
| 20260902235521 | 74 | 219 | 7.0 | 14.0 | 0.00 | 0.00 | 0.00 | 74 | 1014.1 |
| 20260902235021 | 75 | 260 | 5.0 | 14.0 | 0.00 | 0.00 | 0.00 | 75 | 1014.3 |
| 20260902234541 | 75 | 226 | 6.0 | 15.0 | 0.00 | 0.00 | 0.00 | 74 | 1014.3 |
| 20260902234019 | 74 | 208 | 6.0 | 15.0 | 0.00 | 0.00 | 0.00 | 74 | 1014.3 |
| 20260902233516 | 75 | 292 | 8.0 | 15.0 | 0.00 | 0.00 | 0.00 | 73 | 1014.3 |
| 20260902233046 | 75 | 227 | 6.0 | 14.0 | 0.00 | 0.00 | 0.00 | 74 | 1014.3 |
| 20260902232515 | 75 | 273 | 7.0 | 13.0 | 0.00 | 0.00 | 0.00 | 72 | 1014.3 |
| 20260902232016 | 76 | 286 | 6.0 | 14.0 | 0.00 | 0.00 | 0.00 | 72 | 1014.2 |
| 20260902231535 | 76 | 180 | 6.0 | 14.0 | 0.00 | 0.00 | 0.00 | 72 | 1014.3 |
| 20260902231018 | 76 | 229 | 6.0 | 14.0 | 0.00 | 0.00 | 0.00 | 73 | 1014.3 |
| 20260902230526 | 76 | 249 | 4.0 | 13.0 | 0.00 | 0.00 | 0.00 | 72 | 1014.4 |
| 20260902230052 | 75 | 261 | 5.0 | 14.0 | 0.00 | 0.00 | 0.00 | 73 | 1014.4 |
| 20260902225518 | 75 | 254 | 6.0 | 14.0 | 0.00 | 0.00 | 0.00 | 74 | 1014.5 |
| 20260902225021 | 75 | 209 | 6.0 | 13.0 | 0.00 | 0.00 | 0.00 | 74 | 1014.5 |
| 20260902224537 | 75 | 229 | 6.0 | 15.0 | 0.00 | 0.00 | 0.00 | 73 | 1014.5 |
| 20260902224016 | 75 | 254 | 6.0 | 15.0 | 0.00 | 0.00 | 0.00 | 73 | 1014.5 |
| 20260902223516 | 75 | 281 | 6.0 | 13.0 | 0.00 | 0.00 | 0.00 | 72 | 1014.6 |
| 20260902223039 | 76 | 267 | 5.0 | 13.0 | 0.00 | 0.00 | 0.00 | 70 | 1014.7 |
| 20260902222519 | 76 | 265 | 5.0 | 13.0 | 0.00 | 0.00 | 0.00 | 70 | 1014.7 |
| 20260902222018 | 77 | 244 | 4.0 | 13.0 | 0.00 | 0.00 | 0.00 | 70 | 1014.9 |
| 20260902221537 | 77 | 265 | 5.0 | 12.0 | 0.00 | 0.00 | 0.00 | 68 | 1014.9 |
| 20260902221018 | 76 | 232 | 5.0 | 12.0 | 0.00 | 0.00 | 0.00 | 69 | 1015.0 |
| 20260902220518 | 77 | 197 | 5.0 | 12.0 | 0.00 | 0.00 | 0.00 | 68 | 1015.0 |
| 20260902220044 | 77 | 194 | 5.0 | 12.0 | 0.00 | 0.00 | 0.00 | 67 | 1015.0 |
| 20260902215517 | 77 | 221 | 4.0 | 12.0 | 0.00 | 0.00 | 0.00 | 66 | 1015.1 |
| 20260902215017 | 77 | 226 | 4.0 | 12.0 | 0.00 | 0.00 | 0.00 | 65 | 1015.1 |
| 20260902214557 | 77 | 275 | 4.0 | 12.0 | 0.00 | 0.00 | 0.00 | 63 | 1015.2 |
| 20260902214019 | 77 | 267 | 6.0 | 12.0 | 0.00 | 0.00 | 0.00 | 64 | 1015.2 |
| 20260902213516 | 77 | 242 | 4.0 | 12.0 | 0.00 | 0.00 | 0.00 | 66 | 1015.3 |
| 20260902213034 | 76 | 262 | 5.0 | 12.0 | 0.00 | 0.00 | 0.00 | 66 | 1015.3 |
| 20260902212516 | 76 | 262 | 3.0 | 12.0 | 0.00 | 0.00 | 0.00 | 66 | 1015.3 |
| 20260902212018 | 76 | 244 | 5.0 | 12.0 | 0.00 | 0.00 | 0.00 | 65 | 1015.4 |
| 20260902211535 | 76 | 269 | 5.0 | 13.0 | 0.00 | 0.00 | 0.00 | 68 | 1015.4 |
| 20260902211021 | 75 | 270 | 5.0 | 13.0 | 0.00 | 0.00 | 0.00 | 69 | 1015.5 |
| 20260902210520 | 75 | 242 | 6.0 | 13.0 | 0.00 | 0.00 | 0.00 | 69 | 1015.5 |
| 20260902210038 | 75 | 270 | 4.0 | 11.0 | 0.00 | 0.00 | 0.00 | 69 | 1015.5 |
| 20260902205522 | 75 | 218 | 5.0 | 13.0 | 0.00 | 0.00 | 0.00 | 70 | 1015.6 |
| 20260902205018 | 75 | 253 | 6.0 | 13.0 | 0.00 | 0.00 | 0.00 | 68 | 1015.5 |
| 20260902204536 | 76 | 212 | 5.0 | 13.0 | 0.00 | 0.00 | 0.00 | 69 | 1015.6 |
| 20260902204019 | 76 | 242 | 5.0 | 13.0 | 0.00 | 0.00 | 0.00 | 68 | 1015.7 |
| 20260902203519 | 76 | 235 | 4.0 | 13.0 | 0.00 | 0.00 | 0.00 | 67 | 1015.7 |
| 20260902203038 | 76 | 215 | 3.0 | 13.0 | 0.00 | 0.00 | 0.00 | 68 | 1015.6 |
| 20260902202516 | 75 | 256 | 6.0 | 13.0 | 0.00 | 0.00 | 0.00 | 68 | 1015.7 |
| 20260902202015 | 75 | 211 | 7.0 | 14.0 | 0.00 | 0.00 | 0.00 | 67 | 1015.6 |
| 20260902201541 | 75 | 256 | 5.0 | 14.0 | 0.00 | 0.00 | 0.00 | 69 | 1015.7 |
| 20260902201018 | 75 | 257 | 5.0 | 12.0 | 0.00 | 0.00 | 0.00 | 70 | 1015.8 |
| 20260902200518 | 76 | 213 | 5.0 | 11.0 | 0.00 | 0.00 | 0.00 | 70 | 1015.9 |
| 20260902200037 | 75 | 258 | 4.0 | 11.0 | 0.00 | 0.00 | 0.00 | 70 | 1015.9 |
| 20260902195521 | 76 | 261 | 5.0 | 12.0 | 0.00 | 0.00 | 0.00 | 70 | 1016.0 |
| 20260902195019 | 76 | 237 | 4.0 | 12.0 | 0.00 | 0.00 | 0.00 | 70 | 1016.0 |
| 20260902194536 | 76 | 232 | 4.0 | 12.0 | 0.00 | 0.00 | 0.00 | 69 | 1015.9 |
| 20260902194016 | 76 | 228 | 5.0 | 12.0 | 0.00 | 0.00 | 0.00 | 68 | 1016.0 |
| 20260902193516 | 76 | 263 | 3.0 | 11.0 | 0.00 | 0.00 | 0.00 | 69 | 1016.0 |
| 20260902193037 | 76 | 242 | 5.0 | 11.0 | 0.00 | 0.00 | 0.00 | 69 | 1016.1 |
| 20260902192519 | 76 | 262 | 6.0 | 11.0 | 0.00 | 0.00 | 0.00 | 68 | 1016.1 |
| 20260902192018 | 75 | 257 | 4.0 | 11.0 | 0.00 | 0.00 | 0.00 | 70 | 1016.2 |
| 20260902191541 | 75 | 217 | 4.0 | 11.0 | 0.00 | 0.00 | 0.00 | 70 | 1016.3 |
| 20260902191021 | 75 | 287 | 4.0 | 9.0 | 0.00 | 0.00 | 0.00 | 71 | 1016.3 |
| 20260902190523 | 75 | 221 | 4.0 | 10.0 | 0.00 | 0.00 | 0.00 | 71 | 1016.4 |
| 20260902190035 | 74 | 264 | 3.0 | 10.0 | 0.00 | 0.00 | 0.00 | 72 | 1016.4 |
| 20260902185519 | 74 | 284 | 5.0 | 10.0 | 0.00 | 0.00 | 0.00 | 72 | 1016.4 |
| 20260902185024 | 75 | 227 | 5.0 | 10.0 | 0.00 | 0.00 | 0.00 | 72 | 1016.5 |
| 20260902184544 | 75 | 238 | 4.0 | 12.0 | 0.00 | 0.00 | 0.00 | 71 | 1016.4 |
| 20260902184023 | 75 | 241 | 5.0 | 12.0 | 0.00 | 0.00 | 0.00 | 72 | 1016.4 |
| 20260902183518 | 75 | 223 | 4.0 | 12.0 | 0.00 | 0.00 | 0.00 | 72 | 1016.5 |
| 20260902183042 | 75 | 242 | 6.0 | 12.0 | 0.00 | 0.00 | 0.00 | 72 | 1016.5 |
| 20260902182516 | 75 | 238 | 5.0 | 11.0 | 0.00 | 0.00 | 0.00 | 72 | 1016.5 |
| 20260902182019 | 75 | 266 | 5.0 | 11.0 | 0.00 | 0.00 | 0.00 | 72 | 1016.3 |
| 20260902181536 | 75 | 238 | 3.0 | 9.0 | 0.00 | 0.00 | 0.00 | 73 | 1016.4 |
| 20260902181018 | 75 | 253 | 4.0 | 9.0 | 0.00 | 0.00 | 0.00 | 73 | 1016.3 |
| 20260902180521 | 75 | 240 | 3.0 | 9.0 | 0.00 | 0.00 | 0.00 | 73 | 1016.4 |
| 20260902180039 | 75 | 281 | 3.0 | 9.0 | 0.00 | 0.00 | 0.00 | 73 | 1016.4 |
| 20260902175519 | 74 | 272 | 3.0 | 9.0 | 0.00 | 0.00 | 0.00 | 74 | 1016.4 |
| 20260902175021 | 74 | 262 | 3.0 | 10.0 | 0.00 | 0.00 | 0.00 | 74 | 1016.5 |
| 20260902174546 | 74 | 246 | 3.0 | 10.0 | 0.00 | 0.00 | 0.00 | 72 | 1016.5 |
| 20260902174019 | 74 | 277 | 4.0 | 11.0 | 0.00 | 0.00 | 0.00 | 73 | 1016.5 |
| 20260902173516 | 74 | 259 | 4.0 | 11.0 | 0.00 | 0.00 | 0.00 | 73 | 1016.4 |
| 20260902173056 | 74 | 301 | 4.0 | 9.0 | 0.00 | 0.00 | 0.00 | 73 | 1016.4 |
| 20260902172521 | 74 | 244 | 3.0 | 8.0 | 0.00 | 0.00 | 0.00 | 72 | 1016.3 |